[[[{"header":{"parameterUnit":"kt","parameterCategory":2,"dx":1,"dy":1,"la1":30.253999710083008,"la2":30.299108505249023,"lo1":-89.0895004272461,"lo2":-89.04439544677734,"nx":28,"ny":28,"refTime":"2022-10-26T21:00:00:Z","depth":0,"parameterNumber":1,"parameterNumberName":"U-component_of_WINDS"},"data":[-0.7937,-0.7906,-0.7868,-0.7815,-0.7771,-0.7729,-0.7701,-0.7661,-0.7619,-0.7564,-0.7525,-0.7482,-0.7424,-0.7368,-0.7323,-0.7305,-0.729,-0.7309,-0.7284,-0.7235,-0.7226,-0.7217,-0.7223,-0.7305,-0.7305,-0.7342,-0.7342,-0.7342,-0.7911,-0.7868,-0.7827,-0.7762,-0.7728,-0.7688,-0.7632,-0.7606,-0.7569,-0.7516,-0.7474,-0.7421,-0.7374,-0.7307,-0.7255,-0.724,-0.7218,-0.7229,-0.7231,-0.7223,-0.7168,-0.7175,-0.7248,-0.7248,-0.7248,-0.7248,-0.7248,-0.7248,-0.7853,-0.7835,-0.7773,-0.7728,-0.7684,-0.7641,-0.7617,-0.7564,-0.7523,-0.7464,-0.7423,-0.7379,-0.7317,-0.7233,-0.7194,-0.7159,-0.7139,-0.7138,-0.7139,-0.7141,-0.715,-0.7109,-0.7147,-0.7147,-0.7146,-0.7146,-0.7146,0,-0.7799,-0.7768,-0.7725,-0.7672,-0.7637,-0.7591,-0.7542,-0.7525,-0.7442,-0.7412,-0.7365,-0.733,-0.7262,-0.7213,-0.7154,-0.7112,-0.7066,-0.7055,-0.7055,-0.7077,-0.7106,-0.7094,-0.7011,-0.7055,-0.7054,-0.7053,-0.7052,-0.7052,-0.774,-0.7722,-0.7636,-0.7612,-0.7575,-0.7535,-0.7504,-0.7432,-0.7401,-0.733,-0.7317,-0.7265,-0.7221,-0.715,-0.7086,-0.7034,-0.7012,-0.7034,-0.7003,-0.7025,-0.7016,-0.7019,-0.7018,-0.7042,-0.7043,-0.7044,-0.7045,0,-0.7712,-0.7646,-0.7605,-0.7519,-0.7498,-0.7483,-0.741,-0.7387,-0.7336,-0.7299,-0.7286,-0.7206,-0.716,-0.7091,-0.7022,-0.6988,-0.6965,-0.6942,-0.6988,-0.698,-0.6996,-0.6997,-0.705,-0.7055,-0.6965,-0.6966,-0.6967,0,-0.7637,-0.7615,-0.7518,-0.7498,-0.7472,-0.7399,-0.7375,-0.7328,-0.7272,-0.7242,-0.7177,-0.715,-0.7065,-0.7028,-0.6977,-0.6945,-0.6931,-0.6904,-0.6891,-0.6912,-0.6916,-0.6895,-0.6893,-0.6858,-0.6858,-0.6858,-0.6858,0,-0.7602,-0.7522,-0.7487,-0.7459,-0.7364,-0.735,-0.7309,-0.7245,-0.7214,-0.7161,-0.7141,-0.7085,-0.7055,-0.7013,-0.6948,-0.6931,-0.6906,-0.6868,-0.6878,-0.6881,-0.6878,-0.6879,-0.6942,-0.6857,-0.6857,-0.6857,-0.6857,0,-0.7531,-0.748,-0.7439,-0.7359,-0.7341,-0.7317,-0.7258,-0.7221,-0.7158,-0.7124,-0.7082,-0.703,-0.6994,-0.6962,-0.6912,-0.6908,-0.6883,-0.6852,-0.6851,-0.6846,-0.6813,-0.6861,-0.6926,-0.6931,-0.6839,-0.6839,-0.6839,0,-0.7511,-0.745,-0.7386,-0.7348,-0.731,-0.7241,-0.7213,-0.7158,-0.711,-0.7072,-0.7018,-0.6973,-0.6934,-0.6911,-0.6895,-0.6838,-0.6843,-0.6835,-0.6782,-0.6781,-0.6805,-0.6863,-0.6891,-0.6919,-0.6836,-0.6836,-0.6836,0,-0.7486,-0.737,-0.7367,-0.7332,-0.7246,-0.7212,-0.718,-0.7119,-0.7097,-0.704,-0.7012,-0.6945,-0.6915,-0.6875,-0.6826,-0.6813,-0.6837,-0.6781,-0.6778,-0.6796,-0.6827,-0.6855,-0.686,-0.6807,-0.6808,-0.6808,-0.6834,0,-0.7401,-0.736,-0.7349,-0.7269,-0.7232,-0.7202,-0.7128,-0.7099,-0.7056,-0.7006,-0.6961,-0.6894,-0.6831,-0.6816,-0.6772,-0.6763,-0.6754,-0.6721,-0.6686,-0.6723,-0.673,-0.6733,-0.6682,-0.6681,-0.668,-0.6679,0,0,-0.74,-0.7339,-0.7268,-0.7233,-0.7197,-0.7124,-0.71,-0.7056,-0.6969,-0.6947,-0.6926,-0.6824,-0.677,-0.6723,-0.6728,-0.6701,-0.6694,-0.6682,-0.6705,-0.6709,-0.6712,-0.672,-0.6724,-0.6676,-0.6676,-0.6675,-0.6675,0,-0.7353,-0.73,-0.7275,-0.7227,-0.7153,-0.71,-0.7095,-0.7008,-0.6974,-0.6928,-0.6868,-0.6831,-0.6748,-0.6701,-0.6666,-0.6686,-0.6643,-0.6672,-0.671,-0.6695,-0.67,-0.6704,-0.6715,-0.6719,-0.6672,-0.6672,-0.6672,0,-0.7318,-0.7254,-0.7233,-0.7147,-0.7097,-0.7058,-0.7004,-0.6964,-0.6935,-0.6854,-0.6809,-0.6762,-0.669,-0.6654,-0.6635,-0.6616,-0.6602,-0.659,-0.6596,-0.6593,-0.6575,-0.6581,-0.6587,-0.6516,-0.6515,-0.6515,0,0,-0.7288,-0.7248,-0.7155,-0.7131,-0.7104,-0.7024,-0.6995,-0.6948,-0.6886,-0.6861,-0.6798,-0.6739,-0.6691,-0.666,-0.661,-0.658,-0.6561,-0.6574,-0.6582,-0.6588,-0.6588,-0.6572,-0.6578,-0.6514,-0.6514,-0.6514,0,0,-0.7273,-0.7165,-0.7133,-0.7095,-0.7038,-0.6944,-0.6933,-0.689,-0.6837,-0.6832,-0.6751,-0.6731,-0.6696,-0.665,-0.6648,-0.6597,-0.6563,-0.6562,-0.6628,-0.6636,-0.6643,-0.6655,-0.6582,0,0,0,0,0,-0.7186,-0.7179,-0.715,-0.7133,-0.7021,-0.6961,-0.6946,-0.6879,-0.6858,-0.685,-0.6792,-0.6746,-0.6633,-0.663,-0.6613,-0.6616,-0.6504,-0.6506,-0.6507,-0.6585,-0.6594,-0.6602,0,0,0,0,0,0,-0.7179,-0.7157,-0.715,-0.7058,-0.7032,-0.696,-0.691,-0.6891,-0.6857,-0.6849,-0.6759,-0.6743,-0.6684,-0.6633,-0.6619,-0.6624,-0.6587,-0.6505,-0.6506,-0.6508,-0.6588,-0.6596,-0.6602,0,0,0,0,0,-0.7172,-0.7155,-0.6994,-0.7057,-0.7035,-0.6944,-0.691,-0.6894,-0.6866,-0.6774,-0.6757,-0.6818,-0.6686,-0.6669,-0.6625,-0.6632,-0.6596,-0.6591,-0.6506,-0.6507,-0.6508,-0.6592,0,0,0,0,0,0,-0.7168,-0.714,-0.6988,-0.6979,-0.7055,-0.6947,-0.6928,-0.6896,-0.6791,-0.6774,-0.683,-0.6825,-0.6687,-0.6674,-0.6662,-0.6639,-0.6604,-0.6598,-0.6595,-0.6507,-0.6508,-0.6508,0,0,0,0,0,0,-0.7149,-0.7133,-0.6983,-0.6984,-0.6974,-0.695,-0.6933,-0.6884,-0.6791,-0.6852,-0.6845,-0.6829,-0.6705,-0.6678,-0.6668,-0.6594,-0.6609,-0.6604,-0.6601,-0.6599,-0.6507,-0.6508,0,0,0,0,0,0,-0.7141,-0.7127,-0.6986,-0.6978,-0.697,-0.686,-0.6905,-0.6795,-0.6793,-0.6858,-0.679,-0.6789,-0.671,-0.6698,-0.6672,-0.6603,-0.6596,-0.6609,-0.6606,-0.6603,-0.6602,0,0,0,0,0,0,0,-0.7134,-0.7243,-0.7044,-0.6974,-0.6966,-0.6893,-0.6891,-0.6888,-0.6792,-0.6792,-0.6791,-0.679,-0.6637,-0.6632,-0.6626,-0.661,0,0,-0.661,-0.6607,0,0,0,0,0,0,0,0,-0.7247,-0.7244,-0.7043,-0.7041,-0.704,-0.6893,-0.6891,-0.6889,-0.6792,-0.6792,-0.6791,-0.679,-0.6635,-0.6631,-0.6627,0,0,0,0,0,0,0,0,0,0,0,0,0,0,0,-0.7043,-0.7042,0,-0.6892,-0.6891,-0.6889,-0.6792,-0.6792,-0.6791,-0.679,-0.6634,-0.6631,-0.6627,0,0,0,0,0,0,0,0,0,0,0,0,0,0,0,0,0,0,0,0,0,0,0,0,0,0,0,0,0,0,0,0,0,0,0,0,0,0,0,0,0,0,0,0,0,0,0,0,0,0,0,0,0,0,0,0,0,0,0,0,0,0,0,0,0,0,0,0,0]}],[{"header":{"parameterUnit":"kt","parameterCategory":2,"dx":1,"dy":1,"la1":30.253999710083008,"la2":30.299108505249023,"lo1":-89.0895004272461,"lo2":-89.04439544677734,"nx":28,"ny":28,"refTime":"2022-10-26T21:00:00:Z","depth":0,"parameterNumber":2,"parameterNumberName":"V-component_of_WINDS"},"data":[1.8579,1.8506,1.8477,1.8379,1.8336,1.8263,1.8227,1.8177,1.8129,1.8037,1.7978,1.7939,1.7877,1.7797,1.773,1.7713,1.7685,1.7682,1.7662,1.7707,1.7711,1.7715,1.773,1.7678,1.7678,1.7618,1.7617,1.7617,1.8615,1.8572,1.8513,1.8434,1.8382,1.8367,1.8302,1.8259,1.8193,1.8134,1.8074,1.799,1.7919,1.7856,1.7781,1.7743,1.773,1.7725,1.7725,1.7714,1.7763,1.7779,1.7737,1.7737,1.7737,1.7737,1.7737,1.7737,1.8672,1.863,1.8565,1.8499,1.8452,1.8399,1.8352,1.8305,1.8245,1.8165,1.814,1.8064,1.7996,1.789,1.7846,1.7784,1.7783,1.7766,1.7761,1.7757,1.7756,1.7842,1.777,1.777,1.777,1.777,1.777,0,1.8703,1.8681,1.8622,1.8553,1.8503,1.8447,1.8389,1.836,1.8299,1.8251,1.8179,1.8131,1.8037,1.7963,1.7886,1.7842,1.7817,1.7812,1.7799,1.7808,1.7828,1.7813,1.789,1.7813,1.7813,1.7813,1.7813,1.7814,1.8755,1.8711,1.8628,1.859,1.8551,1.8491,1.8448,1.8398,1.8354,1.8274,1.8238,1.8165,1.8103,1.799,1.7932,1.786,1.7846,1.782,1.7834,1.7847,1.7841,1.7842,1.7836,1.7816,1.7816,1.7815,1.7815,0,1.8787,1.8737,1.8658,1.8579,1.8558,1.8513,1.8444,1.8399,1.8358,1.8289,1.827,1.8204,1.8132,1.8078,1.7984,1.7957,1.7877,1.7868,1.79,1.7894,1.7862,1.7864,1.7774,1.7759,1.7816,1.7816,1.7816,0,1.881,1.8753,1.8682,1.8638,1.8572,1.8524,1.8459,1.8417,1.8359,1.8304,1.827,1.8219,1.8158,1.8098,1.8059,1.7984,1.7967,1.7941,1.793,1.7941,1.7944,1.7913,1.7914,1.7912,1.7913,1.7913,1.7913,0,1.8862,1.8757,1.8687,1.8654,1.8564,1.8531,1.8491,1.8426,1.8383,1.832,1.8291,1.822,1.818,1.8125,1.8075,1.8087,1.7983,1.7989,1.7955,1.7956,1.7932,1.7933,1.7871,1.7914,1.7914,1.7914,1.7915,0,1.8871,1.8811,1.8717,1.864,1.8614,1.8567,1.8495,1.8442,1.8375,1.8347,1.8297,1.8265,1.8198,1.8207,1.8112,1.8142,1.8104,1.8073,1.807,1.8056,1.8067,1.8035,1.7985,1.7975,1.8049,1.805,1.8051,0,1.8942,1.8835,1.8792,1.8703,1.8645,1.861,1.8557,1.8499,1.8458,1.8401,1.8355,1.829,1.8285,1.8257,1.8218,1.8166,1.8128,1.817,1.8082,1.808,1.8099,1.8053,1.8057,1.8003,1.8065,1.8064,1.8063,0,1.8991,1.8882,1.887,1.883,1.8746,1.8698,1.8637,1.8563,1.8528,1.8466,1.8412,1.8321,1.8312,1.8266,1.8232,1.8194,1.8152,1.819,1.8187,1.8182,1.8069,1.8073,1.8064,1.8137,1.8136,1.8134,1.8074,0,1.9011,1.8951,1.8915,1.883,1.8784,1.8726,1.867,1.8629,1.8602,1.8559,1.848,1.8416,1.8337,1.8314,1.8286,1.8218,1.8219,1.8211,1.8212,1.8185,1.8163,1.8154,1.825,1.825,1.8249,1.8249,0,0,1.909,1.9002,1.8957,1.8897,1.8855,1.8818,1.876,1.8715,1.8624,1.8594,1.8596,1.8457,1.8405,1.8313,1.83,1.8269,1.825,1.8262,1.8199,1.8194,1.8189,1.8167,1.8159,1.8249,1.8249,1.8249,1.8249,0,1.9084,1.9037,1.8982,1.8934,1.886,1.8819,1.8806,1.8725,1.8695,1.8618,1.8585,1.853,1.842,1.8368,1.8327,1.8273,1.8249,1.8254,1.8243,1.8199,1.8194,1.8189,1.8167,1.816,1.8248,1.8248,1.8248,0,1.912,1.9062,1.903,1.8936,1.8886,1.8828,1.8817,1.8756,1.8711,1.867,1.8593,1.8549,1.8474,1.8397,1.8359,1.8359,1.8251,1.8275,1.8275,1.8268,1.8222,1.8216,1.8211,1.8279,1.828,1.828,0,0,1.9123,1.9067,1.8988,1.893,1.8902,1.8838,1.8801,1.877,1.8706,1.868,1.8623,1.8559,1.8494,1.8453,1.8389,1.8312,1.829,1.8282,1.828,1.8279,1.8272,1.8226,1.822,1.8281,1.8281,1.8281,0,0,1.9123,1.903,1.9015,1.894,1.8882,1.8798,1.8763,1.8742,1.8679,1.8678,1.862,1.8601,1.8527,1.8484,1.851,1.8387,1.8391,1.8383,1.8417,1.8415,1.8413,1.8423,1.8486,0,0,0,0,0,1.9088,1.9042,1.9029,1.9008,1.8886,1.8806,1.879,1.8742,1.8746,1.8719,1.8668,1.8646,1.8486,1.8507,1.8486,1.8457,1.8299,1.8296,1.8293,1.8318,1.8316,1.8314,0,0,0,0,0,0,1.9079,1.9054,1.903,1.8946,1.8918,1.8807,1.8802,1.8788,1.8747,1.8744,1.8657,1.8643,1.8599,1.8514,1.8496,1.8469,1.8492,1.8297,1.8295,1.8292,1.8317,1.8315,1.8314,0,0,0,0,0,1.9072,1.9052,1.887,1.8946,1.8921,1.8847,1.8804,1.8792,1.8759,1.8679,1.8665,1.8727,1.86,1.8581,1.8503,1.8479,1.8505,1.8498,1.8296,1.8294,1.8292,1.8316,0,0,0,0,0,0,1.9067,1.9039,1.8864,1.8855,1.896,1.8852,1.8834,1.8795,1.8695,1.8681,1.8746,1.8745,1.86,1.8585,1.857,1.8485,1.8515,1.8508,1.8504,1.8294,1.8293,1.8291,0,0,0,0,0,0,1.905,1.9032,1.8859,1.8879,1.8872,1.8857,1.8841,1.8768,1.8694,1.8768,1.8764,1.8747,1.862,1.8588,1.8576,1.8464,1.8523,1.8516,1.8512,1.8509,1.8293,1.8292,0,0,0,0,0,0,1.9041,1.9025,1.8882,1.8876,1.8869,1.8762,1.8791,1.8669,1.8715,1.8773,1.8717,1.8718,1.8623,1.8611,1.858,1.8473,1.8466,1.8522,1.8518,1.8515,1.8513,0,0,0,0,0,0,0,1.9034,1.9151,1.8919,1.8873,1.8867,1.8769,1.8767,1.8764,1.8715,1.8716,1.8717,1.8718,1.856,1.8553,1.8546,1.848,0,0,1.8523,1.852,0,0,0,0,0,0,0,0,1.9156,1.9152,1.8919,1.8917,1.8915,1.8769,1.8767,1.8765,1.8715,1.8716,1.8717,1.8717,1.8558,1.8552,1.8546,0,0,0,0,0,0,0,0,0,0,0,0,0,0,0,1.8919,1.8917,0,1.8768,1.8767,1.8765,1.8715,1.8716,1.8717,1.8717,1.8556,1.8552,1.8547,0,0,0,0,0,0,0,0,0,0,0,0,0,0,0,0,0,0,0,0,0,0,0,0,0,0,0,0,0,0,0,0,0,0,0,0,0,0,0,0,0,0,0,0,0,0,0,0,0,0,0,0,0,0,0,0,0,0,0,0,0,0,0,0,0,0,0,0,0]}]]]